www.pogodaiklimat.ru
Время
(UTC), дата
09 28.07
12 28.07
15 28.07
18 28.07
21 28.07
00 29.07
03 29.07
06 29.07
09 29.07
12 29.07
15 29.07
18 29.07
21 29.07
00 30.07
03 30.07
06 30.07
09 30.07
12 30.07
15 30.07
18 30.07
21 30.07
00 31.07
03 31.07
06 31.07
09 31.07
12 31.07
15 31.07
18 31.07
21 31.07
00 1.08
03 1.08
06 1.08
09 1.08
12 1.08
15 1.08
18 1.08
21 1.08
00 2.08
03 2.08
06 2.08
09 2.08
12 2.08
15 2.08
18 2.08
21 2.08
00 3.08
03 3.08
06 3.08
09 3.08
12 3.08
15 3.08
18 3.08
21 3.08
00 4.08
03 4.08
06 4.08
Ветер
(напр.,м/с)
Видим. Явления Облачность Т
(С)
Тd
(С)
f
(%)
Тe
(С)
Тes
(С)
Комфортность P
(гПа)
Po
(гПа)
Тmin
(С)
Tmax
(С)
R
(мм)
R24
(мм)
S
(см)
ЮВ 6 20 км гроза, ливневой дождь 9/8 1000 м
[Cb cap Ac As]
+27.0 +9.8 34 +27 +28 жарко 1003.3 971.2
СЗ 5 20 км слаб. ливневой дождь {гроза} 9/9 600 м
[Cb cap Ci fib]
+16.9 +15.2 90 +16 +16 по сезону 1008.1 974.9
20 км слаб. ливневой дождь {гроза} н/о +15.9 +14.9 94 +14 +14 по сезону 1008.2 974.8 +30.5
В 5
{16}
н/о зарница {гроза, ливн. дождь} 8/8 600 м
[Cb cap]
+18.0 +12.7 71 +18 +18 тепло 1004.1 971.1 +30.5 9
В 2 н/о в посл. час гроза {ливн. дождь} 6/4 600 м
[Cb cap Ci fib]
+16.1 +14.0 87 +16 +16 тепло 1004.7 971.5
Ю 2 20 км гроза, ливневой дождь 10/9 600 м
[Cb cap Ac As]
+17.2 +14.5 84 +18 +18 тепло 1005.3 972.2
В 4 20 км {гроза, ливн. дождь} 9/8 1000 м
[Cb cap Ac trans]
+17.5 +15.1 86 +17 +18 тепло 1004.0 971.0
В 5 20 км {гроза, ливн. дождь} 9/9 1000 м
[Cb cap]
+22.2 +14.7 62 +26 +26 душно 1002.7 970.2 +15.3 5
ЮВ 4 20 км 8/6 1000 м
[Cb cap Ac trans]
+23.0 +15.6 63 +27 +29 душно 1003.0 970.6
В 3 20 км 6/6 1000 м
[Cb cap]
+23.8 +13.5 52 +26 +27 жарко 1004.1 971.7
ЮЗ 3 20 км 6/3 1000 м
[Cb cap Ac lent]
+20.2 +13.5 65 +23 +23 комфорт 1006.4 973.6 +25.6
ЮЗ 3 н/о 9/4 1000 м
[Cb cap Ac trans]
+17.5 +14.2 81 +18 +18 тепло 1009.2 976.0 +25.6
Ю 2 н/о 4/3 1000 м
[Cb cap Ac lent]
+15.6 +13.9 90 +15 +15 тепло 1011.2 977.7
ЮЗ 2 20 км 6/1 1500 м
[Sc Ac lent Ci fib]
+14.0 +12.6 91 +13 +14 по сезону 1013.0 979.2
З 2 20 км 9/4 1000 м
[Cb cap Ac lent]
+18.4 +11.8 65 +19 +21 по сезону 1013.7 980.4
З 1 20 км в посл. час гроза {ливн. дождь} 9/6 1000 м
[Cb cap Ac trans Ci fib]
+15.2 +13.1 87 +16 +20 холодно 1014.9 981.2 +13.9
В 2 20 км в посл. час гроза {ливн. дождь} 8/5 1000 м
[Cb cap Ac trans]
+19.8 +14.9 73 +22 +26 комфорт 1014.1 981.0
З 2 20 км {гроза, ливн. дождь} 9/3 1500 м
[Cu med, cong Ac trans Cc]
+22.1 +9.9 46 +24 +25 комфорт 1013.7 980.8
ЮЗ 2 20 км 3/0
[Ac trans]
+16.0 +11.6 75 +16 +16 холодно 1014.7 981.1 +22.4
СВ 1 н/о 3/0
[Ci fib]
+13.1 +10.6 85 +13 +13 прохладно 1015.2 981.2 +22.4 9
В 1 н/о 3/0
[Ci fib]
+11.0 +9.4 90 +11 +11 прохладно 1014.9 980.7
В 2 20 км ясно +10.7 +8.5 86 +9 +10 прохладно 1015.3 981.0
В 2 20 км 3/0
[Cc]
+18.1 +9.2 56 +19 +26 по сезону 1014.8 981.4
СЗ 2 20 км 6/1 1500 м
[Cu med, cong Ci sp]
+23.1 +6.8 35 +24 +36 комфорт 1012.9 980.1 +9.5
СЗ 2 20 км 5/1 1500 м
[Cu med, cong Ac cast Cc]
+24.8 +7.3 33 +25 +33 комфорт 1011.5 978.9
СЗ 2 20 км 4/1 1500 м
[Cu hum Ac lent Ci sp]
+25.3 +2.0 22 +24 +26 комфорт 1011.1 978.6
Ю 1 20 км 5/3 1500 м
[Sc Ac trans Ci fib]
+17.7 +10.5 63 +19 +19 по сезону 1012.6 979.2 +25.8
В 2 н/о 4/1 1500 м
[Sc Ac trans Ci fib]
+15.5 +9.2 66 +15 +15 по сезону 1013.1 979.5 +25.8
В 2 н/о 4/0
[Ac trans Ci fib]
+13.6 +11.4 87 +13 +13 по сезону 1013.4 979.6
В 3 20 км 8/4 1000 м
[Cb cap Ac trans Ci fib]
+14.0 +8.5 69 +13 +13 по сезону 1014.0 980.2
В 3 20 км ясно +19.7 +9.2 51 +21 +28 комфорт 1013.5 980.3
СЗ 2 20 км 1/1 1500 м
[Cu hum]
+26.6 +8.1 31 +27 +41 жарко 1012.1 979.7 +12.2
С 2 20 км 3/3 1500 м
[Cu hum]
+28.1 +12.5 38 +29 +37 жарко 1010.5 978.4
СЗ 2 20 км 3/1 1500 м
[Cu hum Ci fib]
+28.0 +11.0 35 +29 +31 жарко 1009.8 977.7
З 2 н/о 1/0
[Ci fib]
+22.9 +12.7 53 +26 +26 жарко 1010.8 978.1 +28.8
ЮЗ 2 н/о ясно +16.1 +12.5 79 +16 +16 по сезону 1011.2 977.7 +28.8
ЮВ 1 н/о ясно +12.8 +11.5 92 +13 +13 прохладно 1010.6 976.8
штиль 0 20 км ясно +11.4 +10.4 94 +11 +11 по сезону 1011.4 977.4
ЮЗ 1 20 км ясно +21.0 +13.4 62 +25 +34 комфорт 1010.4 977.5
С 2 20 км 3/0
[Ci sp]
+25.5 +11.6 42 +27 +41 жарко 1007.9 975.6 +11.1
С 4 20 км 3/0
[Ac trans Ci fib]
+30.1 +7.0 23 +29 +36 жарко 1005.7 973.9
СЗ 5 20 км 3/0
[Ci fib]
+29.3 +8.8 28 +29 +30 жарко 1004.7 972.8
З 2 н/о 1/0
[Ci fib]
+22.0 +13.0 57 +25 +25 комфорт 1005.9 973.3 +30.8
штиль 0 н/о ясно +15.6 +12.2 80 +15 +15 по сезону 1006.7 973.3 +30.8
Ю 1 н/о ясно +14.4 +12.8 90 +15 +15 по сезону 1006.4 972.9
штиль 0 20 км ясно +12.7 +11.0 89 +12 +13 по сезону 1006.7 973.0
В 1 20 км 3/0
[Ci sp]
+20.8 +14.4 67 +25 +33 комфорт 1005.5 972.8
С 3 20 км 3/0
[Ci sp]
+26.7 +13.9 45 +29 +41 жарко 1003.8 971.7 +12.3
З 2 20 км 3/1 1500 м
[Cu med, cong Ci sp]
+31.2 +10.3 28 +31 +41 жарко 1001.7 970.1
СЗ 2 20 км 3/1 1500 м
[Cu med, cong Ci sp]
+31.3 +12.3 31 +32 +34 жарко 1000.5 969.0
штиль 0 н/о 3/1 1500 м
[Sc diur, vesp Ci sp]
+22.1 +5.3 33 +22 +22 комфорт 1001.6 969.0 +31.9
штиль 0 н/о ясно +16.3 +14.0 86 +16 +16 по сезону 1002.2 969.1 +31.9
В 1 н/о ясно +14.8 +12.8 88 +15 +15 по сезону 1002.8 969.5
В 1 20 км ясно +15.5 +12.8 84 +16 +17 тепло 1003.6 970.3
СЗ 1 20 км 1/0
[Cc]
+22.9 +13.2 54 +26 +35 жарко 1003.3 970.8
СЗ 2 20 км 1/1 1000 м
[Cb calv]
+27.6 +14.7 45 +30 +44 жарко 1001.8 969.9 +13.0
Местоположение метеостанции Усть-Каменогорск (Восточно-Казахстанская область, Казахстан): широта 49.97 долгота 82.63 высота над уровнем моря 292 м.
В архиве по умолчанию представлена погода в Усть-Каменогорске за последнюю неделю. Архивные данные за месяц целиком и за предыдущие месяцы, начиная с января 2011 года, Вы можете получить, выбрав интересующий диапазон дат из раскрывающегося списка и нажав кнопку "Найти!".
*Определитесь, кто Вы:
Внимание! Время в таблицах - всемирное. Для получения местного времени необходимо прибавить поправку, которая равна 6 ч.
Смотрите также архив погоды в соседних городах и на ближайших метеорологических станциях:
Партнеры нашего сайта:      
Пояснения к столбцам:
  • Ветер - указаны скорость ветра в м/с - средняя за 10 мин, порывы в срок и между сроками (в фигурных скобках) и направление, откуда дует ветер: С - северный,
  • СВ - северо-восточный, В - восточный, ЮВ - юго-восточный, Ю - южный, ЮЗ - юго-западный, З - западный, СЗ - северо-западный.
  • Видимость - горизонтальная дальность видимости в метрах или километрах. При видимости от 1 до 10 км при отсутствии осадков обычно наблюдается дымка, при ухудшении видимости до 1 км и менее - туман. В сухую погоду видимость может ухудшаться дымом, пылью или мглою.
  • Явления - указаны атмосферные явления, наблюдавшиеся в срок или в последний час перед сроком; фигурными скобками обозначены явления, наблюдавшиеся между сроками (за 1-3 часа до срока); квадратными скобками обозначены град или гололедные отложения с указанием их диаметра в мм.
  • Облачность - указаны через наклонную черту общая и нижняя облачность в баллах и высота нижней границы облаков в метрах; квадратными скобками обозначены формы облаков: Ci - перистые, Cs - перисто-слоистые, Cc - перисто-кучевые, Ac - высококучевые, As - высокослоистые, Sc - слоисто-кучевые, Ns - слоисто-дождевые, Cu - кучевые, Cb - кучево-дождевые. Подробнее классификацию облаков см. в Атласе облаков (PDF).
  • T - Температура воздуха - температура, измеренная на высоте 2 м над землей.
  • Td - Температура точки росы - температура, при понижении до которой содержащийся в воздухе водяной пар достигнет насыщения.
  • f - Относительная влажность воздуха - влажноcть воздуха, измеренная на высоте 2 м над землей.
  • Te - Эффективная температура - температура, которую ощущает одетый по сезону человек в тени. Характеристика душности погоды. При расчете учитывается влияние влажности воздуха и скорости ветра на теплоощущения человека.
  • Tes - Эффективная температура на солнце - температура, которую ощущает человек, с поправкой на солнечный нагрев. Характеристика знойности погоды. Зависит от высоты солнца над горизонтом, облачности и скорости ветра. Ночью, в пасмурную погоду, а также при ветре 12 м/с и более поправка равна нулю.
  • P - Атмосферное давление - приведенное к уровню моря атмосферное давление.
  • Po - Атмосферное давление - измеренное на уровне метеостанции атмосферное давление.
  • Tmin - Минимальная температура - минимум температуры воздуха на высоте 2 м над землей.
  • Tmax - Максимальная температура - максимум температуры воздуха на высоте 2 м над землей.
  • R - Количество осадков - Количество выпавших осадков за период времени, мм. При наведении курсора мыши на число - период времени, за который выпало указанное количество осадков.
  • R24 - Количество осадков - Количество выпавших осадков за 24 часа, мм.
  • S - Снежный покров - Высота снежного покрова, см. При наведении курсора мыши на число - состояние снежного покрова и степень покрытия местности в баллах.